| time (UTC) | temp F | wind direction | speed MPH | gust MPH | rain 1hr in | rain 24hr in | rain mn in | humidity % | barometer mb |
| 20260502130518 | 76 | 199 | 7.0 | 13.0 | 0.00 | 0.00 | 0.00 | 32 | 1021.4 |
| 20260502123513 | 76 | 250 | 3.0 | 11.0 | 0.00 | 0.00 | 0.00 | 30 | 1021.8 |
| 20260502123019 | 77 | 257 | 0.0 | 4.0 | 0.00 | 0.00 | 0.00 | 30 | 1021.9 |
| 20260502122512 | 76 | 286 | 0.0 | 8.0 | 0.00 | 0.00 | 0.00 | 31 | 1021.9 |
| 20260502122011 | 75 | 112 | 2.0 | 8.0 | 0.00 | 0.00 | 0.00 | 31 | 1022.0 |
| 20260502121511 | 75 | 287 | 0.0 | 17.0 | 0.00 | 0.00 | 0.00 | 31 | 1022.1 |
| 20260502121010 | 75 | 309 | 6.0 | 17.0 | 0.00 | 0.00 | 0.00 | 32 | 1022.1 |
| 20260502120510 | 75 | 180 | 6.0 | 17.0 | 0.00 | 0.00 | 0.00 | 31 | 1022.2 |
| 20260502115507 | 75 | 205 | 0.0 | 12.0 | 0.00 | 0.00 | 0.00 | 32 | 1022.4 |
| 20260502115006 | 74 | 169 | 7.0 | 17.0 | 0.00 | 0.00 | 0.00 | 33 | 1022.5 |
| 20260502111056 | 75 | 294 | 0.0 | 19.0 | 0.00 | 0.00 | 0.00 | 35 | 1022.9 |
| 20260502110556 | 73 | 280 | 10.0 | 19.0 | 0.00 | 0.00 | 0.00 | 34 | 1023.0 |
| 20260502110058 | 74 | 276 | 7.0 | 17.0 | 0.00 | 0.00 | 0.00 | 35 | 1023.0 |
| 20260502105555 | 75 | 213 | 6.0 | 15.0 | 0.00 | 0.00 | 0.00 | 32 | 1023.0 |
| 20260502105053 | 74 | 337 | 1.0 | 11.0 | 0.00 | 0.00 | 0.00 | 34 | 1023.1 |
| 20260502104552 | 73 | 215 | 6.0 | 11.0 | 0.00 | 0.00 | 0.00 | 34 | 1023.2 |
| 20260502100538 | 73 | 355 | 3.0 | 17.0 | 0.00 | 0.00 | 0.00 | 36 | 1023.5 |
| 20260502071025 | 66 | 261 | 0.0 | 9.0 | 0.00 | 0.00 | 0.00 | 47 | 1024.5 |
| 20260502070524 | 65 | 149 | 2.0 | 9.0 | 0.00 | 0.00 | 0.00 | 47 | 1024.5 |
| 20260502070023 | 64 | 205 | 0.0 | 1.0 | 0.00 | 0.00 | 0.00 | 49 | 1024.5 |
| 20260502065521 | 64 | 198 | 0.0 | 1.0 | 0.00 | 0.00 | 0.00 | 49 | 1024.5 |
| 20260502065022 | 63 | 171 | 0.0 | 10.0 | 0.00 | 0.00 | 0.00 | 50 | 1024.5 |
| 20260502064518 | 63 | 209 | 0.0 | 10.0 | 0.00 | 0.00 | 0.00 | 50 | 1024.5 |
| 20260502064018 | 62 | 210 | 0.0 | 0.0 | 0.00 | 0.00 | 0.00 | 51 | 1024.6 |
| 20260502063515 | 63 | 236 | 0.0 | 0.0 | 0.00 | 0.00 | 0.00 | 51 | 1024.5 |
| 20260502063025 | 62 | 165 | 0.0 | 0.0 | 0.00 | 0.00 | 0.00 | 52 | 1024.5 |
| 20260502062512 | 61 | 200 | 0.0 | 0.0 | 0.00 | 0.00 | 0.00 | 55 | 1024.6 |
| 20260502062014 | 60 | 192 | 0.0 | 0.0 | 0.00 | 0.00 | 0.00 | 55 | 1024.6 |
| 20260502061510 | 60 | 227 | 0.0 | 0.0 | 0.00 | 0.00 | 0.00 | 55 | 1024.6 |
| 20260502061008 | 59 | 162 | 0.0 | 0.0 | 0.00 | 0.00 | 0.00 | 56 | 1024.6 |
| 20260502060508 | 59 | 205 | 0.0 | 0.0 | 0.00 | 0.00 | 0.00 | 57 | 1024.5 |
| 20260502060005 | 59 | 163 | 0.0 | 0.0 | 0.00 | 0.00 | 0.00 | 58 | 1024.5 |
| 20260502055505 | 58 | 198 | 0.0 | 0.0 | 0.00 | 0.00 | 0.00 | 59 | 1024.6 |
| 20260502055004 | 57 | 149 | 0.0 | 0.0 | 0.00 | 0.00 | 0.00 | 61 | 1024.5 |
| 20260502054501 | 57 | 138 | 0.0 | 0.0 | 0.00 | 0.00 | 0.00 | 61 | 1024.5 |
| 20260502054100 | 57 | 152 | 0.0 | 0.0 | 0.00 | 0.00 | 0.00 | 62 | 1024.5 |
| 20260502053603 | 56 | 144 | 0.0 | 0.0 | 0.00 | 0.00 | 0.00 | 63 | 1024.5 |
| 20260502053122 | 56 | 159 | 0.0 | 0.0 | 0.00 | 0.00 | 0.00 | 65 | 1024.4 |
| 20260502052556 | 55 | 167 | 0.0 | 0.0 | 0.00 | 0.00 | 0.00 | 64 | 1024.5 |
| 20260502052055 | 54 | 190 | 0.0 | 0.0 | 0.00 | 0.00 | 0.00 | 65 | 1024.5 |
| 20260502051605 | 54 | 171 | 0.0 | 0.0 | 0.00 | 0.00 | 0.00 | 68 | 1024.5 |
| 20260502051052 | 53 | 173 | 0.0 | 0.0 | 0.00 | 0.00 | 0.00 | 70 | 1024.5 |
| 20260502050552 | 52 | 193 | 0.0 | 0.0 | 0.00 | 0.00 | 0.00 | 71 | 1024.5 |
| 20260502050048 | 52 | 193 | 0.0 | 2.0 | 0.00 | 0.00 | 0.00 | 75 | 1024.5 |
| 20260502045551 | 51 | 193 | 0.0 | 2.0 | 0.00 | 0.00 | 0.00 | 77 | 1024.4 |
| 20260502045048 | 50 | 19 | 0.0 | 0.0 | 0.00 | 0.00 | 0.00 | 80 | 1024.5 |
| 20260502044545 | 49 | 18 | 0.0 | 0.0 | 0.00 | 0.00 | 0.00 | 82 | 1024.4 |
| 20260502044043 | 48 | 19 | 0.0 | 0.0 | 0.00 | 0.00 | 0.00 | 84 | 1024.4 |
| 20260502043542 | 47 | 18 | 0.0 | 0.0 | 0.00 | 0.00 | 0.00 | 86 | 1024.3 |
| 20260502043041 | 46 | 18 | 0.0 | 0.0 | 0.00 | 0.00 | 0.00 | 87 | 1024.3 |
| 20260502042544 | 45 | 18 | 0.0 | 0.0 | 0.00 | 0.00 | 0.00 | 89 | 1024.3 |
| 20260502042037 | 44 | 19 | 0.0 | 0.0 | 0.00 | 0.00 | 0.00 | 89 | 1024.3 |
| 20260502041559 | 43 | 18 | 0.0 | 0.0 | 0.00 | 0.00 | 0.00 | 89 | 1024.3 |
| 20260502041035 | 42 | 18 | 0.0 | 0.0 | 0.00 | 0.00 | 0.00 | 88 | 1024.3 |
| 20260502040534 | 42 | 18 | 0.0 | 0.0 | 0.00 | 0.00 | 0.00 | 88 | 1024.2 |
| 20260502040033 | 42 | 36 | 0.0 | 0.0 | 0.00 | 0.00 | 0.00 | 88 | 1024.2 |
| 20260502035534 | 41 | 36 | 0.0 | 0.0 | 0.00 | 0.00 | 0.00 | 87 | 1024.2 |
| 20260502035033 | 41 | 36 | 0.0 | 0.0 | 0.00 | 0.00 | 0.00 | 87 | 1024.2 |
| 20260502034532 | 41 | 36 | 0.0 | 0.0 | 0.00 | 0.00 | 0.00 | 87 | 1024.2 |
| 20260502034032 | 41 | 36 | 0.0 | 0.0 | 0.00 | 0.00 | 0.00 | 86 | 1024.3 |
| 20260502033530 | 41 | 36 | 0.0 | 0.0 | 0.00 | 0.00 | 0.00 | 86 | 1024.2 |
| 20260502033031 | 41 | 36 | 0.0 | 0.0 | 0.00 | 0.00 | 0.00 | 86 | 1024.3 |
| 20260502032528 | 41 | 36 | 0.0 | 0.0 | 0.00 | 0.00 | 0.00 | 86 | 1024.4 |
| 20260502032028 | 41 | 36 | 0.0 | 0.0 | 0.00 | 0.00 | 0.00 | 86 | 1024.3 |
| 20260502031528 | 42 | 36 | 0.0 | 0.0 | 0.00 | 0.00 | 0.00 | 86 | 1024.3 |
| 20260502031027 | 42 | 36 | 0.0 | 0.0 | 0.00 | 0.00 | 0.00 | 85 | 1024.3 |
| 20260502030527 | 42 | 36 | 0.0 | 0.0 | 0.00 | 0.00 | 0.00 | 86 | 1024.3 |
| 20260502030026 | 42 | 36 | 0.0 | 0.0 | 0.00 | 0.00 | 0.00 | 85 | 1024.3 |
| 20260502025532 | 42 | 36 | 0.0 | 0.0 | 0.00 | 0.00 | 0.00 | 85 | 1024.3 |
| 20260502025025 | 42 | 36 | 0.0 | 0.0 | 0.00 | 0.00 | 0.00 | 85 | 1024.3 |
| 20260502024524 | 42 | 36 | 0.0 | 0.0 | 0.00 | 0.00 | 0.00 | 85 | 1024.4 |
| 20260502024024 | 43 | 36 | 0.0 | 0.0 | 0.00 | 0.00 | 0.00 | 85 | 1024.3 |
| 20260502023524 | 43 | 36 | 0.0 | 0.0 | 0.00 | 0.00 | 0.00 | 85 | 1024.3 |
| 20260502023024 | 43 | 36 | 0.0 | 0.0 | 0.00 | 0.00 | 0.00 | 85 | 1024.3 |
| 20260502022523 | 43 | 36 | 0.0 | 0.0 | 0.00 | 0.00 | 0.00 | 85 | 1024.3 |
| 20260502022026 | 43 | 36 | 0.0 | 0.0 | 0.00 | 0.00 | 0.00 | 85 | 1024.3 |
| 20260502021522 | 43 | 36 | 0.0 | 0.0 | 0.00 | 0.00 | 0.00 | 85 | 1024.3 |
| 20260502021024 | 43 | 36 | 0.0 | 0.0 | 0.00 | 0.00 | 0.00 | 85 | 1024.3 |
| 20260502020521 | 43 | 36 | 0.0 | 0.0 | 0.00 | 0.00 | 0.00 | 84 | 1024.3 |
| 20260502020020 | 43 | 36 | 0.0 | 1.0 | 0.00 | 0.00 | 0.00 | 84 | 1024.4 |
| 20260502015520 | 43 | 36 | 0.0 | 1.0 | 0.00 | 0.00 | 0.00 | 84 | 1024.4 |
| 20260502015024 | 43 | 36 | 0.0 | 0.0 | 0.00 | 0.00 | 0.00 | 84 | 1024.4 |
| 20260502014526 | 43 | 36 | 0.0 | 0.0 | 0.00 | 0.00 | 0.00 | 84 | 1024.4 |
| 20260502014019 | 43 | 36 | 0.0 | 0.0 | 0.00 | 0.00 | 0.00 | 84 | 1024.4 |
| 20260502013519 | 43 | 36 | 0.0 | 0.0 | 0.00 | 0.00 | 0.00 | 84 | 1024.4 |
| 20260502013019 | 44 | 36 | 0.0 | 0.0 | 0.00 | 0.00 | 0.00 | 84 | 1024.5 |
| 20260502012521 | 43 | 36 | 0.0 | 0.0 | 0.00 | 0.00 | 0.00 | 84 | 1024.4 |
| 20260502012020 | 44 | 36 | 0.0 | 0.0 | 0.00 | 0.00 | 0.00 | 84 | 1024.5 |
| 20260502011518 | 44 | 36 | 0.0 | 0.0 | 0.00 | 0.00 | 0.00 | 84 | 1024.5 |
| 20260502011017 | 44 | 36 | 0.0 | 0.0 | 0.00 | 0.00 | 0.00 | 83 | 1024.5 |
| 20260502010517 | 44 | 36 | 0.0 | 0.0 | 0.00 | 0.00 | 0.00 | 83 | 1024.5 |
| 20260502010022 | 44 | 36 | 0.0 | 0.0 | 0.00 | 0.00 | 0.00 | 84 | 1024.5 |
| 20260502005517 | 44 | 36 | 0.0 | 0.0 | 0.00 | 0.00 | 0.00 | 83 | 1024.4 |
| 20260502005018 | 44 | 36 | 0.0 | 0.0 | 0.00 | 0.00 | 0.00 | 83 | 1024.5 |
| 20260502004516 | 44 | 36 | 0.0 | 0.0 | 0.00 | 0.00 | 0.00 | 82 | 1024.5 |
| 20260502004015 | 44 | 36 | 0.0 | 0.0 | 0.00 | 0.00 | 0.00 | 82 | 1024.5 |
| 20260502003514 | 44 | 36 | 0.0 | 0.0 | 0.00 | 0.00 | 0.00 | 81 | 1024.5 |
| 20260502003015 | 44 | 36 | 0.0 | 0.0 | 0.00 | 0.00 | 0.00 | 81 | 1024.5 |
| 20260502002514 | 44 | 36 | 0.0 | 0.0 | 0.00 | 0.00 | 0.00 | 81 | 1024.4 |
| 20260502002018 | 44 | 36 | 0.0 | 0.0 | 0.00 | 0.00 | 0.00 | 81 | 1024.4 |
| 20260502001512 | 45 | 36 | 0.0 | 0.0 | 0.00 | 0.00 | 0.00 | 80 | 1024.4 |
| 20260502001011 | 45 | 36 | 0.0 | 0.0 | 0.00 | 0.00 | 0.00 | 80 | 1024.4 |
| 20260502000510 | 45 | 36 | 0.0 | 0.0 | 0.00 | 0.00 | 0.00 | 80 | 1024.4 |
| 20260502000010 | 45 | 36 | 0.0 | 0.0 | 0.00 | 0.00 | 0.00 | 80 | 1024.5 |
| 20260501235509 | 45 | 36 | 0.0 | 0.0 | 0.00 | 0.00 | 0.00 | 80 | 1024.4 |
| 20260501235008 | 46 | 36 | 0.0 | 0.0 | 0.00 | 0.00 | 0.00 | 79 | 1024.4 |
| 20260501234508 | 46 | 36 | 0.0 | 0.0 | 0.00 | 0.00 | 0.00 | 80 | 1024.4 |
| 20260501234007 | 46 | 36 | 0.0 | 0.0 | 0.00 | 0.00 | 0.00 | 80 | 1024.4 |
| 20260501233507 | 46 | 36 | 0.0 | 0.0 | 0.00 | 0.00 | 0.00 | 79 | 1024.4 |
| 20260501233007 | 46 | 36 | 0.0 | 0.0 | 0.00 | 0.00 | 0.00 | 79 | 1024.3 |
| 20260501232506 | 46 | 36 | 0.0 | 0.0 | 0.00 | 0.00 | 0.00 | 79 | 1024.5 |
| 20260501232004 | 46 | 36 | 0.0 | 0.0 | 0.00 | 0.00 | 0.00 | 79 | 1024.5 |
| 20260501231504 | 46 | 36 | 0.0 | 0.0 | 0.00 | 0.00 | 0.00 | 79 | 1024.5 |
| 20260501231004 | 47 | 36 | 0.0 | 0.0 | 0.00 | 0.00 | 0.00 | 78 | 1024.6 |
| 20260501230506 | 47 | 36 | 0.0 | 0.0 | 0.00 | 0.00 | 0.00 | 78 | 1024.6 |
| 20260501230005 | 47 | 36 | 0.0 | 0.0 | 0.00 | 0.00 | 0.00 | 78 | 1024.6 |
| 20260501225503 | 47 | 36 | 0.0 | 0.0 | 0.00 | 0.00 | 0.00 | 77 | 1024.6 |
| 20260501225002 | 47 | 36 | 0.0 | 0.0 | 0.00 | 0.00 | 0.00 | 77 | 1024.6 |
| 20260501224501 | 47 | 36 | 0.0 | 0.0 | 0.00 | 0.00 | 0.00 | 77 | 1024.6 |
| 20260501224100 | 47 | 36 | 0.0 | 0.0 | 0.00 | 0.00 | 0.00 | 76 | 1024.5 |
| 20260501223603 | 47 | 36 | 0.0 | 0.0 | 0.00 | 0.00 | 0.00 | 76 | 1024.5 |
| 20260501223136 | 48 | 36 | 0.0 | 0.0 | 0.00 | 0.00 | 0.00 | 76 | 1024.5 |
| 20260501222558 | 48 | 36 | 0.0 | 0.0 | 0.00 | 0.00 | 0.00 | 75 | 1024.5 |
| 20260501222058 | 48 | 36 | 0.0 | 0.0 | 0.00 | 0.00 | 0.00 | 75 | 1024.5 |
| 20260501221556 | 48 | 36 | 0.0 | 0.0 | 0.00 | 0.00 | 0.00 | 75 | 1024.6 |
| 20260501221056 | 48 | 36 | 0.0 | 0.0 | 0.00 | 0.00 | 0.00 | 75 | 1024.6 |
| 20260501220556 | 48 | 36 | 0.0 | 0.0 | 0.00 | 0.00 | 0.00 | 74 | 1024.6 |
| 20260501220056 | 49 | 36 | 0.0 | 0.0 | 0.00 | 0.00 | 0.00 | 73 | 1024.6 |
| 20260501215556 | 49 | 36 | 0.0 | 0.0 | 0.00 | 0.00 | 0.00 | 73 | 1024.6 |
| 20260501215059 | 49 | 36 | 0.0 | 0.0 | 0.00 | 0.00 | 0.00 | 73 | 1024.6 |
| 20260501214557 | 49 | 36 | 0.0 | 0.0 | 0.00 | 0.00 | 0.00 | 72 | 1024.6 |
| 20260501214055 | 49 | 36 | 0.0 | 0.0 | 0.00 | 0.00 | 0.00 | 72 | 1024.6 |
| 20260501213556 | 50 | 36 | 0.0 | 0.0 | 0.00 | 0.00 | 0.00 | 72 | 1024.6 |
| 20260501213100 | 50 | 36 | 0.0 | 0.0 | 0.00 | 0.00 | 0.00 | 72 | 1024.6 |
| 20260501212555 | 50 | 36 | 0.0 | 0.0 | 0.00 | 0.00 | 0.00 | 71 | 1024.6 |
| 20260501212055 | 50 | 36 | 0.0 | 0.0 | 0.00 | 0.00 | 0.00 | 70 | 1024.6 |
| 20260501211555 | 50 | 36 | 0.0 | 0.0 | 0.00 | 0.00 | 0.00 | 69 | 1024.5 |
| 20260501211054 | 51 | 36 | 0.0 | 0.0 | 0.00 | 0.00 | 0.00 | 69 | 1024.6 |
| 20260501210554 | 51 | 36 | 0.0 | 0.0 | 0.00 | 0.00 | 0.00 | 69 | 1024.5 |
| 20260501210057 | 51 | 36 | 0.0 | 0.0 | 0.00 | 0.00 | 0.00 | 68 | 1024.6 |
| 20260501205554 | 51 | 36 | 0.0 | 0.0 | 0.00 | 0.00 | 0.00 | 68 | 1024.6 |
| 20260501205053 | 51 | 36 | 0.0 | 0.0 | 0.00 | 0.00 | 0.00 | 68 | 1024.5 |
| 20260501204614 | 51 | 36 | 0.0 | 0.0 | 0.00 | 0.00 | 0.00 | 67 | 1024.6 |
| 20260501204053 | 51 | 36 | 0.0 | 0.0 | 0.00 | 0.00 | 0.00 | 67 | 1024.6 |
| 20260501203556 | 52 | 36 | 0.0 | 0.0 | 0.00 | 0.00 | 0.00 | 66 | 1024.6 |
| 20260501203054 | 52 | 36 | 0.0 | 0.0 | 0.00 | 0.00 | 0.00 | 66 | 1024.5 |
| 20260501202553 | 52 | 36 | 0.0 | 0.0 | 0.00 | 0.00 | 0.00 | 64 | 1024.5 |
| 20260501202506 | 52 | 36 | 0.0 | 0.0 | 0.00 | 0.00 | 0.00 | 64 | 1024.6 |
| 20260501195035 | 55 | 36 | 0.0 | 0.0 | 0.00 | 0.00 | 0.00 | 59 | 1024.5 |
| 20260501194534 | 55 | 36 | 0.0 | 0.0 | 0.00 | 0.00 | 0.00 | 59 | 1024.5 |
| 20260501194033 | 55 | 36 | 0.0 | 0.0 | 0.00 | 0.00 | 0.00 | 59 | 1024.5 |
| 20260501193033 | 56 | 36 | 0.0 | 0.0 | 0.00 | 0.00 | 0.00 | 58 | 1024.5 |
| 20260501192532 | 57 | 36 | 0.0 | 0.0 | 0.00 | 0.00 | 0.00 | 57 | 1024.5 |
| 20260501192031 | 57 | 36 | 0.0 | 0.0 | 0.00 | 0.00 | 0.00 | 56 | 1024.5 |
| 20260501191601 | 58 | 36 | 0.0 | 0.0 | 0.00 | 0.00 | 0.00 | 55 | 1024.4 |
| 20260501191031 | 58 | 36 | 0.0 | 0.0 | 0.00 | 0.00 | 0.00 | 55 | 1024.5 |
| 20260501190532 | 59 | 36 | 0.0 | 0.0 | 0.00 | 0.00 | 0.00 | 54 | 1024.5 |
| 20260501190031 | 59 | 36 | 0.0 | 0.0 | 0.00 | 0.00 | 0.00 | 52 | 1024.4 |
| 20260501185028 | 60 | 36 | 0.0 | 0.0 | 0.00 | 0.00 | 0.00 | 50 | 1024.3 |
| 20260501184528 | 61 | 36 | 0.0 | 0.0 | 0.00 | 0.00 | 0.00 | 48 | 1024.3 |
| 20260501184028 | 62 | 36 | 0.0 | 0.0 | 0.00 | 0.00 | 0.00 | 46 | 1024.3 |
| 20260501183528 | 62 | 36 | 0.0 | 0.0 | 0.00 | 0.00 | 0.00 | 45 | 1024.2 |
| 20260501183029 | 63 | 36 | 0.0 | 0.0 | 0.00 | 0.00 | 0.00 | 44 | 1024.2 |
| 20260501182528 | 63 | 36 | 0.0 | 0.0 | 0.00 | 0.00 | 0.00 | 44 | 1024.2 |
| 20260501182027 | 64 | 36 | 0.0 | 0.0 | 0.00 | 0.00 | 0.00 | 43 | 1024.1 |
| 20260501181528 | 64 | 36 | 0.0 | 0.0 | 0.00 | 0.00 | 0.00 | 42 | 1024.1 |
| 20260501181027 | 65 | 36 | 0.0 | 1.0 | 0.00 | 0.00 | 0.00 | 41 | 1024.0 |
| 20260501180526 | 65 | 36 | 0.0 | 1.0 | 0.00 | 0.00 | 0.00 | 41 | 1024.0 |
| 20260501180026 | 66 | 36 | 0.0 | 4.0 | 0.00 | 0.00 | 0.00 | 40 | 1024.0 |
| 20260501175529 | 66 | 36 | 0.0 | 4.0 | 0.00 | 0.00 | 0.00 | 39 | 1023.9 |
| 20260501175026 | 67 | 36 | 0.0 | 6.0 | 0.00 | 0.00 | 0.00 | 39 | 1023.9 |
| 20260501173524 | 68 | 355 | 5.0 | 14.0 | 0.00 | 0.00 | 0.00 | 37 | 1023.8 |
| 20260501173023 | 68 | 11 | 4.0 | 17.0 | 0.00 | 0.00 | 0.00 | 37 | 1023.9 |
| 20260501172525 | 68 | 34 | 6.0 | 17.0 | 0.00 | 0.00 | 0.00 | 37 | 1023.8 |
| 20260501172022 | 68 | 21 | 7.0 | 17.0 | 0.00 | 0.00 | 0.00 | 36 | 1023.8 |